| time (UTC) | temp F | wind direction | speed MPH | gust MPH | rain 1hr in | rain 24hr in | rain mn in | humidity % | barometer mb |
| 20260508000028 | 76 | 236 | 13.0 | 18.0 | 0.00 | 0.02 | 0.02 | 20 | 1011.2 |
| 20260507234527 | 75 | 211 | 11.0 | 21.0 | 0.00 | 0.02 | 0.02 | 21 | 1011.2 |
| 20260507233024 | 75 | 237 | 10.0 | 19.0 | 0.00 | 0.02 | 0.02 | 20 | 1011.4 |
| 20260507231532 | 75 | 238 | 8.0 | 17.0 | 0.00 | 0.02 | 0.02 | 22 | 1011.5 |
| 20260507230025 | 74 | 360 | 15.0 | 28.0 | 0.00 | 0.02 | 0.02 | 22 | 1011.8 |
| 20260507224523 | 77 | 230 | 12.0 | 18.0 | 0.00 | 0.02 | 0.02 | 21 | 1012.1 |
| 20260507223017 | 75 | 271 | 6.0 | 16.0 | 0.00 | 0.02 | 0.02 | 22 | 1012.3 |
| 20260507221514 | 74 | 209 | 10.0 | 25.0 | 0.00 | 0.02 | 0.02 | 24 | 1012.4 |
| 20260507220020 | 74 | 360 | 10.0 | 23.0 | 0.00 | 0.02 | 0.02 | 24 | 1012.7 |
| 20260507214509 | 74 | 176 | 12.0 | 22.0 | 0.00 | 0.02 | 0.02 | 24 | 1013.0 |
| 20260507213009 | 74 | 201 | 12.0 | 20.0 | 0.00 | 0.02 | 0.02 | 24 | 1013.3 |
| 20260507211505 | 74 | 217 | 11.0 | 22.0 | 0.00 | 0.02 | 0.02 | 25 | 1013.6 |
| 20260507210004 | 76 | 219 | 12.0 | 22.0 | 0.00 | 0.02 | 0.02 | 25 | 1014.1 |
| 20260507204601 | 76 | 235 | 8.0 | 25.0 | 0.00 | 0.02 | 0.02 | 25 | 1014.2 |
| 20260507203057 | 73 | 217 | 11.0 | 18.0 | 0.00 | 0.02 | 0.02 | 26 | 1014.7 |
| 20260507201559 | 75 | 249 | 11.0 | 19.0 | 0.00 | 0.02 | 0.02 | 26 | 1015.1 |
| 20260507200051 | 74 | 245 | 12.0 | 24.0 | 0.00 | 0.02 | 0.02 | 28 | 1015.5 |
| 20260507194548 | 74 | 267 | 15.0 | 20.0 | 0.00 | 0.02 | 0.02 | 27 | 1015.8 |
| 20260507193049 | 71 | 253 | 14.0 | 23.0 | 0.00 | 0.02 | 0.02 | 29 | 1016.3 |
| 20260507191550 | 71 | 209 | 15.0 | 26.0 | 0.00 | 0.02 | 0.02 | 32 | 1016.5 |
| 20260507190037 | 71 | 244 | 11.0 | 20.0 | 0.00 | 0.02 | 0.02 | 34 | 1016.8 |
| 20260507184535 | 69 | 248 | 13.0 | 23.0 | 0.00 | 0.02 | 0.02 | 35 | 1017.2 |
| 20260507183032 | 69 | 269 | 8.0 | 22.0 | 0.00 | 0.02 | 0.02 | 38 | 1017.5 |
| 20260507181528 | 66 | 209 | 10.0 | 20.0 | 0.00 | 0.02 | 0.02 | 42 | 1017.8 |
| 20260507180025 | 66 | 220 | 13.0 | 19.0 | 0.00 | 0.02 | 0.02 | 44 | 1018.3 |
| 20260507174534 | 65 | 244 | 14.0 | 22.0 | 0.00 | 0.02 | 0.02 | 47 | 1018.5 |
| 20260507173019 | 62 | 220 | 15.0 | 26.0 | 0.00 | 0.02 | 0.02 | 51 | 1018.8 |
| 20260507171517 | 60 | 225 | 14.0 | 22.0 | 0.00 | 0.02 | 0.02 | 54 | 1019.2 |
| 20260507170012 | 60 | 269 | 17.0 | 26.0 | 0.00 | 0.02 | 0.02 | 56 | 1019.5 |
| 20260507164510 | 59 | 258 | 12.0 | 23.0 | 0.00 | 0.02 | 0.02 | 56 | 1019.7 |
| 20260507163006 | 57 | 266 | 16.0 | 23.0 | 0.00 | 0.02 | 0.02 | 60 | 1019.9 |
| 20260507161504 | 57 | 247 | 14.0 | 20.0 | 0.00 | 0.02 | 0.02 | 60 | 1020.2 |
| 20260507160100 | 55 | 215 | 13.0 | 22.0 | 0.00 | 0.02 | 0.02 | 63 | 1020.4 |
| 20260507154603 | 54 | 248 | 12.0 | 19.0 | 0.00 | 0.02 | 0.02 | 64 | 1020.5 |
| 20260507153059 | 53 | 242 | 10.0 | 19.0 | 0.00 | 0.02 | 0.02 | 73 | 1020.5 |
| 20260507151549 | 50 | 264 | 10.0 | 16.0 | 0.00 | 0.02 | 0.02 | 86 | 1020.7 |
| 20260507150045 | 47 | 267 | 11.0 | 16.0 | 0.00 | 0.02 | 0.02 | 89 | 1020.9 |
| 20260507144540 | 46 | 253 | 9.0 | 14.0 | 0.00 | 0.02 | 0.02 | 90 | 1021.0 |
| 20260507143037 | 44 | 211 | 8.0 | 14.0 | 0.00 | 0.02 | 0.02 | 90 | 1021.4 |
| 20260507141534 | 43 | 246 | 7.0 | 14.0 | 0.00 | 0.02 | 0.02 | 90 | 1021.5 |
| 20260507140033 | 42 | 242 | 5.0 | 11.0 | 0.00 | 0.02 | 0.02 | 90 | 1021.5 |
| 20260507134534 | 41 | 262 | 6.0 | 11.0 | 0.00 | 0.02 | 0.02 | 90 | 1021.7 |
| 20260507133032 | 41 | 290 | 5.0 | 10.0 | 0.00 | 0.02 | 0.02 | 90 | 1021.8 |
| 20260507131548 | 41 | 250 | 7.0 | 10.0 | 0.00 | 0.02 | 0.02 | 90 | 1021.7 |
| 20260507130030 | 41 | 261 | 6.0 | 9.0 | 0.00 | 0.02 | 0.02 | 90 | 1021.7 |
| 20260507124533 | 41 | 296 | 4.0 | 7.0 | 0.00 | 0.02 | 0.02 | 90 | 1021.6 |
| 20260507123029 | 40 | 273 | 4.0 | 8.0 | 0.00 | 0.02 | 0.02 | 89 | 1021.5 |
| 20260507121530 | 40 | 269 | 6.0 | 10.0 | 0.00 | 0.02 | 0.02 | 89 | 1021.3 |
| 20260507120038 | 40 | 273 | 7.0 | 9.0 | 0.00 | 0.02 | 0.02 | 89 | 1021.3 |
| 20260507114527 | 39 | 280 | 6.0 | 8.0 | 0.00 | 0.02 | 0.02 | 89 | 1021.3 |
| 20260507113025 | 40 | 267 | 5.0 | 9.0 | 0.00 | 0.02 | 0.02 | 89 | 1021.2 |
| 20260507111525 | 40 | 275 | 6.0 | 10.0 | 0.00 | 0.02 | 0.02 | 89 | 1021.1 |
| 20260507110023 | 40 | 292 | 6.0 | 10.0 | 0.00 | 0.02 | 0.02 | 89 | 1021.2 |
| 20260507104522 | 40 | 292 | 5.0 | 8.0 | 0.00 | 0.02 | 0.02 | 89 | 1021.2 |
| 20260507103020 | 40 | 302 | 4.0 | 7.0 | 0.00 | 0.02 | 0.02 | 89 | 1021.4 |
| 20260507101520 | 40 | 300 | 5.0 | 9.0 | 0.00 | 0.02 | 0.02 | 88 | 1021.3 |
| 20260507100025 | 40 | 315 | 2.0 | 8.0 | 0.00 | 0.02 | 0.02 | 89 | 1021.4 |
| 20260507094517 | 40 | 319 | 3.0 | 6.0 | 0.00 | 0.02 | 0.02 | 88 | 1021.6 |
| 20260507093017 | 40 | 320 | 0.0 | 7.0 | 0.00 | 0.02 | 0.02 | 88 | 1021.4 |
| 20260507091517 | 40 | 342 | 2.0 | 6.0 | 0.00 | 0.02 | 0.02 | 88 | 1021.4 |
| 20260507090021 | 41 | 348 | 1.0 | 4.0 | 0.00 | 0.02 | 0.02 | 88 | 1021.3 |
| 20260507084515 | 41 | 347 | 2.0 | 6.0 | 0.00 | 0.02 | 0.02 | 88 | 1021.3 |
| 20260507083013 | 40 | 347 | 4.0 | 7.0 | 0.02 | 0.02 | 0.02 | 87 | 1021.1 |
| 20260507081515 | 41 | 94 | 0.0 | 3.0 | 0.02 | 0.02 | 0.02 | 87 | 1020.9 |
| 20260507080008 | 41 | 94 | 1.0 | 3.0 | 0.02 | 0.02 | 0.02 | 87 | 1020.8 |
| 20260507074515 | 41 | 94 | 3.0 | 6.0 | 0.02 | 0.02 | 0.02 | 87 | 1021.1 |
| 20260507073005 | 41 | 94 | 3.0 | 10.0 | 0.00 | 0.00 | 0.00 | 86 | 1021.3 |
| 20260507071504 | 41 | 72 | 3.0 | 5.0 | 0.00 | 0.00 | 0.00 | 86 | 1021.7 |
| 20260507070004 | 41 | 41 | 4.0 | 7.0 | 0.00 | 0.00 | 0.00 | 86 | 1021.9 |
| 20260507064600 | 42 | 360 | 6.0 | 11.0 | 0.00 | 0.00 | 0.00 | 85 | 1022.5 |
| 20260507063059 | 42 | 339 | 6.0 | 11.0 | 0.00 | 0.00 | 0.00 | 85 | 1022.4 |
| 20260507061555 | 42 | 328 | 7.0 | 11.0 | 0.00 | 0.00 | 0.00 | 84 | 1022.5 |
| 20260507060056 | 42 | 345 | 6.0 | 9.0 | 0.00 | 0.00 | 0.00 | 83 | 1022.0 |
| 20260507054631 | 43 | 17 | 5.0 | 8.0 | 0.00 | 0.00 | 0.00 | 82 | 1021.8 |
| 20260507053052 | 43 | 47 | 5.0 | 9.0 | 0.00 | 0.00 | 0.00 | 81 | 1021.3 |
| 20260507051546 | 43 | 55 | 7.0 | 11.0 | 0.00 | 0.00 | 0.00 | 79 | 1021.4 |
| 20260507050042 | 44 | 34 | 10.0 | 16.0 | 0.00 | 0.00 | 0.00 | 77 | 1021.2 |
| 20260507044548 | 45 | 53 | 9.0 | 15.0 | 0.00 | 0.00 | 0.00 | 71 | 1021.4 |
| 20260507043044 | 45 | 35 | 8.0 | 14.0 | 0.00 | 0.00 | 0.00 | 71 | 1021.8 |
| 20260507041541 | 45 | 5 | 13.0 | 19.0 | 0.00 | 0.00 | 0.00 | 68 | 1021.3 |
| 20260507040038 | 46 | 346 | 13.0 | 23.0 | 0.00 | 0.00 | 0.00 | 64 | 1020.8 |
| 20260507034535 | 47 | 15 | 13.0 | 21.0 | 0.00 | 0.00 | 0.00 | 62 | 1020.7 |
| 20260507033034 | 48 | 13 | 14.0 | 25.0 | 0.00 | 0.00 | 0.00 | 61 | 1020.7 |
| 20260507031531 | 48 | 5 | 14.0 | 23.0 | 0.00 | 0.00 | 0.00 | 61 | 1020.4 |
| 20260507030030 | 49 | 12 | 13.0 | 26.0 | 0.00 | 0.00 | 0.00 | 60 | 1020.1 |
| 20260507024527 | 49 | 17 | 14.0 | 21.0 | 0.00 | 0.00 | 0.00 | 58 | 1019.8 |
| 20260507023025 | 50 | 13 | 15.0 | 23.0 | 0.00 | 0.00 | 0.00 | 57 | 1019.2 |
| 20260507021524 | 51 | 28 | 17.0 | 25.0 | 0.00 | 0.00 | 0.00 | 56 | 1018.9 |
| 20260507020021 | 52 | 19 | 10.0 | 20.0 | 0.00 | 0.00 | 0.00 | 54 | 1018.5 |
| 20260507014519 | 53 | 22 | 15.0 | 21.0 | 0.00 | 0.00 | 0.00 | 54 | 1017.7 |
| 20260507013010 | 53 | 26 | 12.0 | 18.0 | 0.00 | 0.00 | 0.00 | 53 | 1017.0 |
| 20260507011510 | 54 | 44 | 11.0 | 18.0 | 0.00 | 0.00 | 0.00 | 53 | 1016.6 |
| 20260507010010 | 55 | 66 | 13.0 | 18.0 | 0.00 | 0.00 | 0.00 | 52 | 1016.0 |
| 20260507004513 | 55 | 84 | 10.0 | 16.0 | 0.00 | 0.00 | 0.00 | 52 | 1015.5 |
| 20260507003008 | 56 | 51 | 12.0 | 20.0 | 0.00 | 0.00 | 0.00 | 51 | 1015.2 |
| 20260507001506 | 56 | 74 | 11.0 | 16.0 | 0.00 | 0.00 | 0.00 | 52 | 1015.1 |